Home   Weather   Coventry   Past weeks

Flag for United Kingdom Past Weather in Coventry, England, United Kingdom — Yesterday and Last 2 Weeks

Now
36 °F

Clear.


Feels Like: 33 °F
Forecast: 34 / 39 °F
Wind: 3 mph from North

Location: Birmingham / Airport

Current Time: Jan 20, 2018 at 3:45:26 am

Latest Report: Jan 20, 2018 at 3:20 am


Visibility: 10 mi

Pressure: 29.62 "Hg

Humidity: 87%

Dew Point: 32 °F

Location of CoventryLocation

Past Weather in Coventry — Graph

°F

Coventry Temperature Yesterday

Maximum temperature yesterday: 43 °F (at 1:20 pm)
Minimum temperature yesterday: 34 °F (at 8:50 am)
Average temperature yesterday: 38 °F

High & Low Weather Summary for the Past Weeks

 TemperatureHumidityPressure
High50 °F (Jan 15, 11:50 am)100% (Jan 5, 4:50 am)30.39 "Hg (Jan 5, 4:50 am)
Low27 °F (Jan 6, 3:20 am)61% (Jan 16, 12:20 pm)29.15 "Hg (Jan 5, 11:20 am)
Average39 °F88%29.80 "Hg
* Reported Jan 5 2:20 am — Jan 20 2:20 am, Coventry. Weather by CustomWeather, © 2018

Note: Actual official high and low records may vary slightly from our data, if they occured in-between our weather recording intervals... More about our weather records

Advertising

Coventry Weather History for the Previous 24 Hours

Scroll right to see more
 ConditionsComfort  
Time TempWeatherWind HumidityBarometerVisibility
2:20 am
Sat, Jan 20
36 °FClear.6 mph87%29.65 "Hg10 mi
1:50 am36 °FClear.6 mph87%29.65 "Hg10 mi
1:20 am36 °FClear.7 mph87%29.68 "Hg10 mi
12:50 am36 °FPassing clouds.7 mph87%29.71 "HgN/A
12:20 am36 °FClear.8 mph87%29.71 "Hg10 mi
11:50 pm
Fri, Jan 19
36 °FPassing clouds.8 mph87%29.71 "HgN/A
11:20 pm36 °FClear.10 mph87%29.74 "Hg10 mi
10:50 pm37 °FClear.8 mph81%29.71 "Hg10 mi
10:20 pm36 °FPassing clouds.7 mph87%29.71 "HgN/A
9:50 pm36 °FPassing clouds.8 mph87%29.71 "HgN/A
9:20 pm37 °FPassing clouds.9 mph81%29.71 "HgN/A
8:50 pm37 °FPassing clouds.9 mph81%29.71 "HgN/A
8:20 pm37 °FClear.9 mph81%29.74 "Hg10 mi
7:50 pm37 °FClear.9 mph81%29.74 "Hg10 mi
7:20 pm37 °FPassing clouds.8 mph81%29.74 "HgN/A
6:50 pm37 °FClear.8 mph81%29.74 "Hg10 mi
6:20 pm39 °FClear.13 mph75%29.74 "Hg10 mi
5:50 pm39 °FPassing clouds.8 mph70%29.71 "HgN/A
5:20 pm39 °FPassing clouds.10 mph70%29.71 "HgN/A
4:50 pm39 °FPassing clouds.9 mph70%29.71 "HgN/A
4:20 pm39 °FPassing clouds.14 mph70%29.71 "HgN/A
3:50 pm41 °FPassing clouds.14 mph66%29.71 "HgN/A
3:20 pm41 °FScattered clouds.14 mph66%29.71 "HgN/A
2:50 pm43 °FScattered clouds.14 mph61%29.71 "HgN/A
2:20 pm43 °FScattered clouds.13 mph61%29.71 "HgN/A
1:50 pm41 °FScattered clouds.14 mph66%29.71 "HgN/A
1:20 pm43 °FScattered clouds.12 mph66%29.71 "HgN/A
12:50 pm41 °FPassing clouds.14 mph70%29.71 "HgN/A
12:20 pm41 °FPassing clouds.12 mph70%29.71 "HgN/A
10:20 am37 °FPassing clouds.8 mph81%29.74 "HgN/A
9:50 am37 °FPassing clouds.7 mph81%29.74 "HgN/A
8:50 am34 °FSunny.2 mph87%29.74 "Hg10 mi
4:20 am36 °FClear.7 mph87%29.71 "Hg10 mi
3:50 am36 °FClear.8 mph87%29.71 "Hg10 mi
3:20 am36 °FClear.10 mph87%29.71 "Hg10 mi
Weather by CustomWeather, © 2018

See weather overview